Weather History for State College, PA

Change the Weather History Date:

Saturday, February 22, 2014

  Actual Average Record
Temperature  
Mean Temperature 41 °F -  
Max Temperature 50 °F 41 °F 61 °F (1930)
Min Temperature 32 °F 22 °F -5 °F (1963)
Degree Days  
Heating Degree Days 24    
Moisture  
Dew Point 12 °F    
Average Humidity 32    
Maximum Humidity 47    
Minimum Humidity 22    
Precipitation  
Precipitation 0.00 in - - ()
Sea Level Pressure  
Sea Level Pressure 29.95 in    
Wind  
Wind Speed 12 mph (SW)    
Max Wind Speed 25 mph    
Max Gust Speed 29 mph    
Visibility 10 miles    
Events      
Averages and records for this station are not official NWS values.
T = Trace of Precipitation, MM = Missing Value Source: NWS Daily Summary

Daily Weather History Graph

Daily Weather History Graph

Search for Another Location

Airport:

Trip Planner

Search our weather history database for the weather conditions in past years. The results will help you decide how hot, cold, wet, or windy it might be!

Date:

Astronomy

Feb. 22, 2014 Rise Set
Actual Time 6:55 AM EST 5:54 PM EST
Civil Twilight 6:28 AM EST 6:22 PM EST
Nautical Twilight 5:56 AM EST 6:54 PM EST
Astronomical Twilight 5:24 AM EST 7:25 PM EST
Moon 12:50 AM EST (2/22) 11:02 AM EST (2/22)
Length of Visible Light 11h 54m
Length of Day
10h 58m
Waning Gibbous, 50% of the Moon is Illuminated
Feb 22
Waning Gibbous
Feb 22
Last Quarter
Mar 1
New
Mar 8
First Quarter
Mar 16
Full

Hourly Weather History & Observations

Time (EST) Temp. Windchill Dew Point Humidity Pressure Visibility Wind Dir Wind Speed Gust Speed Precip Events Conditions
12:15 AM 39.4 °F 31.1 °F 13.1 °F 34% 29.92 in 10.0 mi WSW 15.0 mph 28.8 mph N/A   Clear
12:35 AM 39.2 °F 29.3 °F 12.7 °F 34% 29.93 in 10.0 mi WSW 20.7 mph 28.8 mph N/A   Clear
12:55 AM 38.5 °F 29.2 °F 13.1 °F 35% 29.94 in 10.0 mi WSW 17.3 mph 26.5 mph N/A   Clear
1:15 AM 38.1 °F 29.1 °F 12.4 °F 35% 29.94 in 10.0 mi WSW 16.1 mph 23.0 mph N/A   Clear
1:35 AM 37.4 °F 28.9 °F 11.1 °F 34% 29.94 in 10.0 mi WSW 13.8 mph - N/A   Clear
1:55 AM 37.9 °F 28.9 °F 9.3 °F 31% 29.95 in 10.0 mi WSW 16.1 mph - N/A   Clear
2:15 AM 37.9 °F 30.0 °F 8.6 °F 30% 29.95 in 10.0 mi West 12.7 mph - N/A   Clear
2:35 AM 37.6 °F 29.6 °F 8.1 °F 29% 29.96 in 10.0 mi WSW 12.7 mph - N/A   Clear
2:55 AM 36.7 °F 28.0 °F 9.5 °F 32% 29.95 in 10.0 mi WSW 13.8 mph - N/A   Clear
3:15 AM 36.1 °F 27.7 °F 10.2 °F 34% 29.95 in 10.0 mi SW 12.7 mph - N/A   Clear
3:35 AM 34.9 °F 27.7 °F 11.1 °F 37% 29.94 in 10.0 mi SW 9.2 mph - N/A   Clear
3:55 AM 34.0 °F 29.8 °F 10.6 °F 38% 29.95 in 10.0 mi South 4.6 mph - N/A   Clear
4:15 AM 33.6 °F 30.6 °F 9.7 °F 37% 29.95 in 10.0 mi South 3.5 mph - N/A   Clear
4:35 AM 32.4 °F 26.9 °F 11.1 °F 41% 29.94 in 10.0 mi South 5.8 mph - N/A   Clear
4:55 AM 33.1 °F 28.7 °F 10.9 °F 40% 29.94 in 10.0 mi South 4.6 mph - N/A   Clear
5:15 AM 33.1 °F 26.9 °F 10.4 °F 39% 29.94 in 10.0 mi SSW 6.9 mph - N/A   Clear
5:35 AM 33.6 °F 27.5 °F 10.2 °F 38% 29.94 in 10.0 mi SSW 6.9 mph - N/A   Clear
5:53 AM 35.6 °F 28.6 °F 8.6 °F 33% 29.94 in 10.0 mi SW 9.2 mph - N/A   Clear
6:53 AM 33.8 °F 26.4 °F 10.4 °F 38% 29.94 in 10.0 mi SW 9.2 mph - N/A   Clear
7:53 AM 39.2 °F 31.2 °F 8.6 °F 28% 29.93 in 10.0 mi SSW 13.8 mph - N/A   Clear
8:53 AM 41.0 °F 33.5 °F 10.4 °F 29% 29.94 in 10.0 mi SSW 13.8 mph 20.7 mph N/A   Scattered Clouds
9:53 AM 44.6 °F 38.4 °F 10.4 °F 25% 29.95 in 10.0 mi SSW 12.7 mph 20.7 mph N/A   Clear
10:53 AM 46.4 °F 37.9 °F 14.0 °F 27% 29.95 in 10.0 mi West 25.3 mph - N/A   Clear
11:53 AM 48.2 °F - 12.2 °F 24% 29.94 in 10.0 mi West 20.7 mph - N/A   Clear
12:53 PM 48.2 °F - 12.2 °F 24% 29.95 in 10.0 mi West 23.0 mph - N/A   Clear
1:50 PM 48.2 °F - 12.2 °F 24% 29.94 in 10.0 mi West 17.3 mph - N/A   Clear
2:50 PM 50.0 °F - 12.2 °F 22% 29.94 in 10.0 mi West 17.3 mph - N/A   Clear
3:01 PM 50.0 °F - 12.2 °F 22% 29.94 in 10.0 mi West 17.3 mph - N/A   Clear
3:50 PM 50.0 °F - 12.2 °F 22% 29.95 in 10.0 mi West 17.3 mph - N/A   Clear
4:50 PM 48.2 °F - 14.0 °F 25% 29.95 in 10.0 mi WSW 11.5 mph - N/A   Clear
5:53 PM 46.4 °F 41.1 °F 14.0 °F 27% 29.95 in 10.0 mi WSW 11.5 mph - N/A   Clear
6:53 PM 44.6 °F 42.2 °F 12.2 °F 27% 29.96 in 10.0 mi SW 4.6 mph - N/A   Clear
7:53 PM 44.6 °F 40.7 °F 12.2 °F 27% 29.97 in 10.0 mi SW 6.9 mph - N/A   Clear
8:53 PM 42.8 °F 38.0 °F 10.4 °F 27% 29.97 in 10.0 mi WSW 8.1 mph - N/A   Clear
9:15 PM 43.5 °F 39.4 °F 11.3 °F 27% 29.96 in 10.0 mi West 6.9 mph - N/A   Clear
9:35 PM 39.6 °F - 12.7 °F 33% 29.96 in 10.0 mi Calm Calm - N/A   Clear
9:55 PM 39.0 °F 36.8 °F 12.9 °F 34% 29.96 in 10.0 mi SSW 3.5 mph - N/A   Clear
10:15 PM 39.7 °F - 12.4 °F 33% 29.96 in 10.0 mi Calm Calm - N/A   Clear
10:35 PM 40.1 °F - 12.6 °F 33% 29.96 in 10.0 mi Calm Calm - N/A   Clear
10:55 PM 43.0 °F - 10.4 °F 27% 29.96 in 10.0 mi Calm Calm - N/A   Clear
11:15 PM 37.6 °F - 14.7 °F 39% 29.97 in 10.0 mi Calm Calm - N/A   Clear
11:35 PM 36.7 °F - 14.7 °F 41% 29.97 in 10.0 mi Calm Calm - N/A   Clear
11:55 PM 34.9 °F - 16.5 °F 47% 29.98 in 10.0 mi Calm Calm - N/A   Clear